Flag for Norway Weather past 2 weeks in Larvik, Norway

Now
48 °F

Cool.


Feels Like: 44 °F
Forecast: 47 / 61 °F
Wind: 10 mph from West

Location: Torp

Current Time: Jun 4, 2015 at 1:45:36 AM

Latest Report: Jun 4, 2015 at 12:50 AM


Visibility: N/A

Pressure: 29.98 "Hg

Humidity: 58%

Dew point: 34 °F

Location of LarvikLocation

Historic Weather in Larvik — Graph

°F

Larvik temperature yesterday

Maximum temperature yesterday: 61 °F (at 12:50 PM)
Minimum temperature yesterday: 48 °F (at 12:50 AM)
Average temperature yesterday: 54 °F

Past Weeks' High & Low Weather Summary

 TemperatureHumidityPressure
High63 °F (May 23, 1:50 PM)100% (May 20, 6:20 AM)30.04 "Hg (May 20, 6:20 AM)
Low39 °F (May 23, 2:50 AM)29% (May 23, 5:50 PM)29.27 "Hg (Jun 3, 2:50 AM)
Average50 °F73%29.70 "Hg
* Reported May 20 12:20 AM — Jun 4 12:20 AM, Larvik, Weather by CustomWeather, © 2015

Note: Actual official high and low records may vary slightly from our data, if they occured in-between our weather recording intervals... More about our weather records

Advertising

Larvik weather history for previous 24 hours

 ConditionsComfort  
Time TempWeatherWind HumidityBarometerVisibility
12:20 AM
Thu, Jun 4
48 °FCool.10 mph58%29.95 "HgN/A
11:50 PM
Wed, Jun 3
50 °FClear.8 mph50%29.95 "Hg10 mi
11:20 PM50 °FSunny.9 mph50%29.92 "Hg10 mi
10:50 PM50 °FSunny.8 mph50%29.89 "Hg10 mi
10:20 PM52 °FPassing clouds.12 mph50%29.89 "HgN/A
9:50 PM54 °FPassing clouds.10 mph44%29.86 "HgN/A
9:20 PM55 °FSunny.14 mph41%29.83 "Hg10 mi
8:50 PM55 °FSunny.17 mph41%29.80 "Hg10 mi
8:20 PM55 °FPassing clouds.9 mph47%29.77 "HgN/A
7:50 PM55 °FSunny.14 mph47%29.77 "Hg10 mi
7:20 PM57 °FSunny.14 mph48%29.74 "Hg10 mi
6:50 PM59 °FPassing clouds.13 mph45%29.71 "HgN/A
6:20 PM59 °FSunny.16 mph45%29.68 "Hg10 mi
5:50 PM61 °FPassing clouds.17 mph42%29.68 "HgN/A
5:20 PM61 °FSunny.18 mph42%29.65 "Hg10 mi
4:50 PM61 °FPassing clouds.17 mph42%29.65 "HgN/A
4:20 PM61 °FPassing clouds.17 mph42%29.62 "HgN/A
3:50 PM61 °FSunny.18 mph42%29.62 "Hg10 mi
3:20 PM61 °FPassing clouds.18 mph39%29.59 "HgN/A
2:50 PM61 °FPassing clouds.16 mph39%29.59 "HgN/A
2:20 PM61 °FPassing clouds.14 mph42%29.56 "HgN/A
1:50 PM61 °FSunny.17 mph39%29.56 "Hg10 mi
1:20 PM61 °FPassing clouds.15 mph39%29.53 "HgN/A
12:50 PM61 °FPassing clouds.14 mph45%29.53 "HgN/A
12:20 PM59 °FSunny.14 mph51%29.50 "Hg10 mi
11:50 AM57 °FSunny.13 mph44%29.50 "Hg10 mi
11:20 AM57 °FPassing clouds.12 mph48%29.47 "HgN/A
10:50 AM57 °FSunny.16 mph48%29.47 "Hg10 mi
10:20 AM55 °FPassing clouds.14 mph51%29.45 "HgN/A
9:50 AM55 °FScattered clouds.14 mph51%29.45 "HgN/A
9:20 AM54 °FScattered clouds.13 mph54%29.45 "HgN/A
8:50 AM54 °FScattered clouds.14 mph54%29.42 "HgN/A
7:50 AM52 °FPassing clouds.14 mph67%29.39 "HgN/A
7:20 AM52 °FPassing clouds.13 mph67%29.36 "HgN/A
6:50 AM50 °FPassing clouds.15 mph76%29.36 "HgN/A
6:20 AM50 °FPassing clouds.13 mph82%29.33 "HgN/A
5:50 AM48 °FPassing clouds.14 mph87%29.33 "HgN/A
5:20 AM48 °FPassing clouds.17 mph87%29.30 "HgN/A
4:50 AM48 °FPassing clouds.15 mph87%29.30 "HgN/A
4:20 AM48 °FPartly cloudy.17 mph87%29.30 "HgN/A
3:50 AM48 °FPassing clouds.17 mph87%29.30 "HgN/A
3:20 AM48 °FPartly cloudy.20 mph87%29.30 "HgN/A
2:50 AM48 °FPassing clouds.20 mph87%29.27 "HgN/A
2:20 AM48 °FMostly cloudy.20 mph87%29.30 "HgN/A
1:50 AM50 °FPartly cloudy.17 mph82%29.30 "HgN/A
1:20 AM48 °FPartly cloudy.23 mph87%29.30 "HgN/A
Weather by CustomWeather, © 2015

See weather overviewHow to use our weather pages